Location: Hope
(40.9110°N, 74.9680°W)
Time: 01:41:22
(UTC-05:00)

N. Korean satellite - Pass Details

Date: 28 January 2019
Orbit: 457 x 510 km, 97.2° (Epoch: 17 February)

Event Time Altitude Azimuth Distance (km) Brightness Sun altitude
Rises 18:09:02 0° 195° (SSW) 2,588 10.7 -11.0°
Reaches altitude 10° 18:11:24 10° 210° (SSW) 1,715 10.0 -11.5°
Maximum altitude 18:14:26 24° 265° (W) 1,095 9.4 -12.0°
Drops below altitude 10° 18:17:30 10° 320° (NW) 1,736 9.7 -12.6°
Sets 18:19:55 0° 335° (NNW) 2,628 10.5 -13.0°
